Time,TemperatureF,DewpointF,PressureIn,WindDirection,WindDirectionDegrees,WindSpeedMPH,WindSpeedGustMPH,Humidity,HourlyPrecipIn,Conditions,Clouds,dailyrainin,SoftwareType,DateUTC
2013-08-14 00:00:00,65.3,0.0,29.62,ESE,113,0.0,0.0,0,0.00,,,0.00,WUHU216HW,2013-08-14 04:00:00,
2013-08-14 00:05:00,65.3,0.0,29.63,ESE,113,0.0,0.0,0,0.00,,,0.00,WUHU216HW,2013-08-14 04:05:00,
2013-08-14 00:10:00,65.2,0.0,29.63,ESE,113,0.0,0.0,0,0.00,,,0.00,WUHU216HW,2013-08-14 04:10:00,
2013-08-14 00:15:00,65.2,0.0,29.62,ESE,113,0.0,0.0,0,0.00,,,0.00,WUHU216HW,2013-08-14 04:15:00,
2013-08-14 00:20:00,65.2,0.0,29.62,ESE,113,0.0,0.0,0,0.00,,,0.00,WUHU216HW,2013-08-14 04:20:00,
2013-08-14 00:25:00,65.0,0.0,29.62,ESE,113,0.0,0.0,0,0.00,,,0.00,WUHU216HW,2013-08-14 04:25:00,
2013-08-14 00:30:00,64.8,0.0,29.62,ESE,113,0.0,0.0,0,0.00,,,0.00,WUHU216HW,2013-08-14 04:30:00,
2013-08-14 00:35:00,64.4,0.0,29.61,ESE,113,0.0,0.0,0,0.00,,,0.00,WUHU216HW,2013-08-14 04:35:00,
2013-08-14 00:40:00,64.3,0.0,29.61,ESE,113,0.0,0.0,0,0.00,,,0.00,WUHU216HW,2013-08-14 04:40:00,
2013-08-14 00:45:00,63.9,0.0,29.61,ESE,113,0.0,0.0,0,0.00,,,0.00,WUHU216HW,2013-08-14 04:45:00,
2013-08-14 00:50:00,63.7,0.0,29.62,ESE,113,0.0,0.0,0,0.00,,,0.00,WUHU216HW,2013-08-14 04:50:00,
2013-08-14 00:55:00,63.5,0.0,29.61,ESE,113,0.0,0.0,0,0.00,,,0.00,WUHU216HW,2013-08-14 04:55:00,
2013-08-14 01:00:00,63.2,0.0,29.62,ESE,113,0.0,0.0,0,0.00,,,0.00,WUHU216HW,2013-08-14 05:00:00,
2013-08-14 01:05:00,63.0,0.0,29.62,ESE,113,0.0,0.0,0,0.00,,,0.00,WUHU216HW,2013-08-14 05:05:00,
2013-08-14 01:11:00,62.8,0.0,29.62,ESE,113,0.0,0.0,0,0.00,,,0.00,WUHU216HW,2013-08-14 05:11:00,
2013-08-14 01:16:00,62.6,0.0,29.61,ESE,113,0.0,0.0,0,0.00,,,0.00,WUHU216HW,2013-08-14 05:16:00,
2013-08-14 01:21:00,62.3,0.0,29.62,ESE,113,0.0,0.0,0,0.00,,,0.00,WUHU216HW,2013-08-14 05:21:00,
2013-08-14 01:26:00,62.3,0.0,29.62,ESE,113,0.0,0.0,0,0.00,,,0.00,WUHU216HW,2013-08-14 05:26:00,
2013-08-14 01:31:00,62.1,0.0,29.62,ESE,113,0.0,0.0,0,0.00,,,0.00,WUHU216HW,2013-08-14 05:31:00,
2013-08-14 01:36:00,61.9,0.0,29.62,ESE,113,0.0,0.0,0,0.00,,,0.00,WUHU216HW,2013-08-14 05:36:00,
2013-08-14 01:41:00,61.9,0.0,29.62,ESE,113,0.0,0.0,0,0.00,,,0.00,WUHU216HW,2013-08-14 05:41:00,
2013-08-14 01:46:00,61.9,0.0,29.62,ESE,113,0.0,0.0,0,0.00,,,0.00,WUHU216HW,2013-08-14 05:46:00,
2013-08-14 01:51:00,61.9,0.0,29.62,SE,135,0.4,0.4,0,0.00,,,0.00,WUHU216HW,2013-08-14 05:51:00,
2013-08-14 01:56:00,61.9,0.0,29.62,SE,135,0.0,0.4,0,0.00,,,0.00,WUHU216HW,2013-08-14 05:56:00,
2013-08-14 02:01:00,62.1,0.0,29.61,SE,135,0.0,0.4,0,0.00,,,0.00,WUHU216HW,2013-08-14 06:01:00,
2013-08-14 02:06:00,62.3,0.0,29.61,ESE,113,1.1,1.1,0,0.00,,,0.00,WUHU216HW,2013-08-14 06:06:00,
2013-08-14 02:11:00,62.3,0.0,29.61,North,0,0.2,1.1,0,0.00,,,0.00,WUHU216HW,2013-08-14 06:11:00,
2013-08-14 02:16:00,62.6,0.0,29.62,North,0,0.0,0.7,0,0.00,,,0.00,WUHU216HW,2013-08-14 06:16:00,
2013-08-14 02:21:00,62.6,0.0,29.61,North,0,0.0,0.0,0,0.00,,,0.00,WUHU216HW,2013-08-14 06:21:00,
2013-08-14 02:26:00,62.8,0.0,29.62,NW,315,0.0,0.4,0,0.00,,,0.00,WUHU216HW,2013-08-14 06:26:00,
2013-08-14 02:31:00,62.8,0.0,29.62,North,0,1.1,1.1,0,0.00,,,0.00,WUHU216HW,2013-08-14 06:31:00,
2013-08-14 02:36:00,62.8,0.0,29.61,SE,135,0.0,1.1,0,0.00,,,0.00,WUHU216HW,2013-08-14 06:36:00,
2013-08-14 02:41:00,63.0,0.0,29.61,North,0,2.7,2.7,0,0.00,,,0.00,WUHU216HW,2013-08-14 06:41:00,
2013-08-14 02:46:00,63.0,0.0,29.61,ENE,68,0.4,2.7,0,0.00,,,0.00,WUHU216HW,2013-08-14 06:46:00,
2013-08-14 02:51:00,63.0,0.0,29.61,NNW,338,0.0,1.6,0,0.00,,,0.00,WUHU216HW,2013-08-14 06:51:00,
2013-08-14 02:56:00,62.8,0.0,29.61,NW,315,0.4,3.6,0,0.00,,,0.00,WUHU216HW,2013-08-14 06:56:00,
2013-08-14 03:01:00,62.6,0.0,29.62,ESE,113,2.2,3.6,0,0.00,,,0.00,WUHU216HW,2013-08-14 07:01:00,
2013-08-14 03:06:00,62.6,0.0,29.62,SSW,203,2.2,2.2,0,0.00,,,0.00,WUHU216HW,2013-08-14 07:06:00,
2013-08-14 03:11:00,62.3,0.0,29.62,NNE,23,0.2,3.4,0,0.00,,,0.00,WUHU216HW,2013-08-14 07:11:00,
2013-08-14 03:16:00,62.3,0.0,29.62,East,90,0.4,3.4,0,0.00,,,0.00,WUHU216HW,2013-08-14 07:16:00,
2013-08-14 03:21:00,61.9,0.0,29.62,NE,45,0.4,2.5,0,0.00,,,0.00,WUHU216HW,2013-08-14 07:21:00,
2013-08-14 03:26:00,61.9,0.0,29.62,WNW,293,0.4,1.1,0,0.00,,,0.00,WUHU216HW,2013-08-14 07:26:00,
2013-08-14 03:31:00,61.6,0.0,29.61,NW,315,0.0,3.1,0,0.00,,,0.00,WUHU216HW,2013-08-14 07:31:00,
2013-08-14 03:36:00,61.6,0.0,29.61,ENE,68,1.8,3.1,0,0.00,,,0.00,WUHU216HW,2013-08-14 07:36:00,
2013-08-14 03:41:00,61.4,0.0,29.62,NE,45,0.9,2.0,0,0.00,,,0.00,WUHU216HW,2013-08-14 07:41:00,
2013-08-14 03:46:00,61.2,0.0,29.62,NNE,23,0.4,1.6,0,0.00,,,0.00,WUHU216HW,2013-08-14 07:46:00,
2013-08-14 03:51:00,61.2,0.0,29.62,SE,135,0.7,1.6,0,0.00,,,0.00,WUHU216HW,2013-08-14 07:51:00,
2013-08-14 03:56:00,60.8,0.0,29.61,NNW,338,0.7,2.2,0,0.00,,,0.00,WUHU216HW,2013-08-14 07:56:00,
2013-08-14 04:01:00,60.8,0.0,29.61,ESE,113,1.8,2.2,0,0.00,,,0.00,WUHU216HW,2013-08-14 08:01:00,
2013-08-14 04:06:00,60.8,0.0,29.62,NNW,338,0.2,1.8,0,0.00,,,0.00,WUHU216HW,2013-08-14 08:06:00,
2013-08-14 04:11:00,60.7,0.0,29.62,NNW,338,0.0,0.9,0,0.00,,,0.00,WUHU216HW,2013-08-14 08:11:00,
2013-08-14 04:16:00,60.7,0.0,29.62,NW,315,0.0,1.1,0,0.00,,,0.00,WUHU216HW,2013-08-14 08:16:00,
2013-08-14 04:21:00,60.7,0.0,29.62,NW,315,0.0,1.1,0,0.00,,,0.00,WUHU216HW,2013-08-14 08:21:00,
2013-08-14 04:26:00,60.5,0.0,29.62,NW,315,0.4,0.4,0,0.00,,,0.00,WUHU216HW,2013-08-14 08:26:00,
2013-08-14 04:31:00,60.5,0.0,29.62,NE,45,0.0,0.9,0,0.00,,,0.00,WUHU216HW,2013-08-14 08:31:00,
2013-08-14 04:36:00,60.5,0.0,29.62,South,180,0.4,0.9,0,0.00,,,0.00,WUHU216HW,2013-08-14 08:36:00,
2013-08-14 04:41:00,60.1,0.0,29.62,SE,135,0.4,1.1,0,0.00,,,0.00,WUHU216HW,2013-08-14 08:41:00,
2013-08-14 04:46:00,59.9,0.0,29.62,North,0,0.4,1.1,0,0.00,,,0.00,WUHU216HW,2013-08-14 08:46:00,
2013-08-14 04:51:00,59.8,0.0,29.62,NE,45,1.1,1.1,0,0.00,,,0.00,WUHU216HW,2013-08-14 08:51:00,
2013-08-14 04:56:00,59.4,0.0,29.62,NNE,23,0.0,1.1,0,0.00,,,0.00,WUHU216HW,2013-08-14 08:56:00,
2013-08-14 05:01:00,59.4,0.0,29.62,SSE,158,0.7,1.1,0,0.00,,,0.00,WUHU216HW,2013-08-14 09:01:00,
2013-08-14 05:07:00,59.4,0.0,29.63,NNE,23,0.2,1.1,0,0.00,,,0.00,WUHU216HW,2013-08-14 09:07:00,
2013-08-14 05:12:00,59.0,0.0,29.63,NE,45,2.7,2.7,0,0.00,,,0.00,WUHU216HW,2013-08-14 09:12:00,
2013-08-14 05:17:00,58.9,0.0,29.63,NE,45,0.0,2.7,0,0.00,,,0.00,WUHU216HW,2013-08-14 09:17:00,
2013-08-14 05:22:00,58.7,0.0,29.63,ENE,68,0.0,0.7,0,0.00,,,0.00,WUHU216HW,2013-08-14 09:22:00,
2013-08-14 05:27:00,58.1,0.0,29.63,ENE,68,0.0,0.7,0,0.00,,,0.00,WUHU216HW,2013-08-14 09:27:00,
2013-08-14 05:32:00,57.6,0.0,29.63,ENE,68,0.0,0.4,0,0.00,,,0.00,WUHU216HW,2013-08-14 09:32:00,
2013-08-14 05:37:00,57.1,0.0,29.63,ENE,68,0.2,0.4,0,0.00,,,0.00,WUHU216HW,2013-08-14 09:37:00,
2013-08-14 05:42:00,56.5,0.0,29.63,ENE,68,0.4,0.4,0,0.00,,,0.00,WUHU216HW,2013-08-14 09:42:00,
2013-08-14 05:47:00,56.0,0.0,29.64,SW,225,0.7,1.8,0,0.00,,,0.00,WUHU216HW,2013-08-14 09:47:00,
2013-08-14 05:52:00,55.4,0.0,29.64,SW,225,1.1,1.8,0,0.00,,,0.00,WUHU216HW,2013-08-14 09:52:00,
2013-08-14 05:57:00,55.3,0.0,29.64,NW,315,0.0,1.1,0,0.00,,,0.00,WUHU216HW,2013-08-14 09:57:00,
2013-08-14 06:02:00,54.7,0.0,29.65,NNE,23,0.0,0.7,0,0.00,,,0.00,WUHU216HW,2013-08-14 10:02:00,
2013-08-14 06:07:00,54.4,0.0,29.65,NNE,23,0.0,0.2,0,0.00,,,0.00,WUHU216HW,2013-08-14 10:07:00,
2013-08-14 06:12:00,54.0,0.0,29.65,NNE,23,0.0,0.0,0,0.00,,,0.00,WUHU216HW,2013-08-14 10:12:00,
2013-08-14 06:17:00,53.6,0.0,29.65,NNE,23,0.0,0.0,0,0.00,,,0.00,WUHU216HW,2013-08-14 10:17:00,
2013-08-14 06:22:00,53.3,0.0,29.66,NNE,23,0.0,0.0,0,0.00,,,0.00,WUHU216HW,2013-08-14 10:22:00,
2013-08-14 06:27:00,52.9,0.0,29.66,NNE,23,0.0,0.0,0,0.00,,,0.00,WUHU216HW,2013-08-14 10:27:00,
2013-08-14 06:32:00,52.7,0.0,29.66,NNE,23,0.0,0.0,0,0.00,,,0.00,WUHU216HW,2013-08-14 10:32:00,
2013-08-14 06:37:00,52.4,0.0,29.67,NNE,23,0.0,0.9,0,0.00,,,0.00,WUHU216HW,2013-08-14 10:37:00,
2013-08-14 06:42:00,52.4,0.0,29.66,NNE,23,0.0,0.9,0,0.00,,,0.00,WUHU216HW,2013-08-14 10:42:00,
2013-08-14 06:47:00,52.4,0.0,29.66,NNE,23,0.0,0.4,0,0.00,,,0.00,WUHU216HW,2013-08-14 10:47:00,
2013-08-14 06:52:00,52.4,0.0,29.67,NNE,23,0.0,0.4,0,0.00,,,0.00,WUHU216HW,2013-08-14 10:52:00,
2013-08-14 06:57:00,52.4,0.0,29.67,NNE,23,0.0,0.4,0,0.00,,,0.00,WUHU216HW,2013-08-14 10:57:00,
2013-08-14 07:02:00,52.6,0.0,29.67,NNE,23,0.0,0.4,0,0.00,,,0.00,WUHU216HW,2013-08-14 11:02:00,
2013-08-14 07:07:00,52.7,0.0,29.67,NNW,338,0.0,0.9,0,0.00,,,0.00,WUHU216HW,2013-08-14 11:07:00,
2013-08-14 07:12:00,52.9,0.0,29.67,NNW,338,0.0,0.9,0,0.00,,,0.00,WUHU216HW,2013-08-14 11:12:00,
2013-08-14 07:17:00,53.6,0.0,29.67,NW,315,0.0,0.4,0,0.00,,,0.00,WUHU216HW,2013-08-14 11:17:00,
2013-08-14 07:22:00,55.1,0.0,29.67,NW,315,0.0,0.4,0,0.00,,,0.00,WUHU216HW,2013-08-14 11:22:00,
2013-08-14 07:27:00,57.2,0.0,29.67,WSW,248,0.4,0.4,0,0.00,,,0.00,WUHU216HW,2013-08-14 11:27:00,
2013-08-14 07:32:00,60.1,0.0,29.67,WSW,248,0.2,0.4,0,0.00,,,0.00,WUHU216HW,2013-08-14 11:32:00,
2013-08-14 07:37:00,62.6,0.0,29.67,WSW,248,0.4,0.4,0,0.00,,,0.00,WUHU216HW,2013-08-14 11:37:00,
2013-08-14 07:42:00,64.8,0.0,29.67,WNW,293,1.1,1.1,0,0.00,,,0.00,WUHU216HW,2013-08-14 11:42:00,
2013-08-14 07:47:00,65.7,0.0,29.68,WNW,293,0.0,1.1,0,0.00,,,0.00,WUHU216HW,2013-08-14 11:47:00,
2013-08-14 07:52:00,66.4,0.0,29.67,SSW,203,0.9,2.2,0,0.00,,,0.00,WUHU216HW,2013-08-14 11:52:00,
2013-08-14 07:57:00,67.0,0.0,29.67,West,270,0.0,2.2,0,0.00,,,0.00,WUHU216HW,2013-08-14 11:57:00,
2013-08-14 08:02:00,66.8,0.0,29.68,SE,135,0.0,1.3,0,0.00,,,0.00,WUHU216HW,2013-08-14 12:02:00,
2013-08-14 08:07:00,66.2,0.0,29.67,SSE,158,0.2,1.3,0,0.00,,,0.00,WUHU216HW,2013-08-14 12:07:00,
2013-08-14 08:12:00,65.7,0.0,29.68,ENE,68,0.7,1.3,0,0.00,,,0.00,WUHU216HW,2013-08-14 12:12:00,
2013-08-14 08:17:00,64.8,0.0,29.68,South,180,0.4,1.6,0,0.00,,,0.00,WUHU216HW,2013-08-14 12:17:00,
2013-08-14 08:22:00,64.8,0.0,29.68,ESE,113,0.4,1.6,0,0.00,,,0.00,WUHU216HW,2013-08-14 12:22:00,
2013-08-14 08:27:00,65.0,0.0,29.68,WNW,293,0.4,1.1,0,0.00,,,0.00,WUHU216HW,2013-08-14 12:27:00,
2013-08-14 08:32:00,65.2,0.0,29.68,WSW,248,0.4,1.8,0,0.00,,,0.00,WUHU216HW,2013-08-14 12:32:00,
2013-08-14 08:37:00,65.2,0.0,29.68,NW,315,0.4,1.8,0,0.00,,,0.00,WUHU216HW,2013-08-14 12:37:00,
2013-08-14 08:42:00,65.2,0.0,29.68,North,0,0.9,1.6,0,0.00,,,0.00,WUHU216HW,2013-08-14 12:42:00,
2013-08-14 08:47:00,65.9,0.0,29.69,WSW,248,0.2,1.3,0,0.00,,,0.00,WUHU216HW,2013-08-14 12:47:00,
2013-08-14 08:52:00,66.1,0.0,29.69,WSW,248,0.9,1.3,0,0.00,,,0.00,WUHU216HW,2013-08-14 12:52:00,
2013-08-14 08:58:00,65.9,0.0,29.68,SW,225,1.3,1.8,0,0.00,,,0.00,WUHU216HW,2013-08-14 12:58:00,
2013-08-14 09:03:00,66.2,0.0,29.68,WSW,248,0.7,2.5,0,0.00,,,0.00,WUHU216HW,2013-08-14 13:03:00,
2013-08-14 09:08:00,66.6,0.0,29.68,SSE,158,1.1,2.5,0,0.00,,,0.00,WUHU216HW,2013-08-14 13:08:00,
2013-08-14 09:13:00,67.0,0.0,29.68,SW,225,0.4,1.1,0,0.00,,,0.00,WUHU216HW,2013-08-14 13:13:00,
2013-08-14 09:18:00,67.7,0.0,29.68,East,90,1.1,1.1,0,0.00,,,0.00,WUHU216HW,2013-08-14 13:18:00,
2013-08-14 09:23:00,67.7,0.0,29.68,ENE,68,1.8,2.5,0,0.00,,,0.00,WUHU216HW,2013-08-14 13:23:00,
2013-08-14 09:28:00,67.9,0.0,29.68,East,90,1.3,2.5,0,0.00,,,0.00,WUHU216HW,2013-08-14 13:28:00,
2013-08-14 09:33:00,68.0,0.0,29.68,WNW,293,0.4,2.2,0,0.00,,,0.00,WUHU216HW,2013-08-14 13:33:00,
2013-08-14 09:38:00,68.6,0.0,29.68,SW,225,0.4,2.9,0,0.00,,,0.00,WUHU216HW,2013-08-14 13:38:00,
2013-08-14 09:43:00,68.4,0.0,29.69,SW,225,1.1,2.9,0,0.00,,,0.00,WUHU216HW,2013-08-14 13:43:00,
2013-08-14 09:48:00,68.8,0.0,29.69,SW,225,1.3,3.4,0,0.00,,,0.00,WUHU216HW,2013-08-14 13:48:00,
2013-08-14 09:53:00,68.9,0.0,29.69,ENE,68,1.6,3.4,0,0.00,,,0.00,WUHU216HW,2013-08-14 13:53:00,
2013-08-14 09:58:00,69.1,0.0,29.69,NNE,23,0.4,2.2,0,0.00,,,0.00,WUHU216HW,2013-08-14 13:58:00,
2013-08-14 10:03:00,69.1,0.0,29.69,ENE,68,0.9,2.5,0,0.00,,,0.00,WUHU216HW,2013-08-14 14:03:00,
2013-08-14 10:08:00,68.8,0.0,29.69,NE,45,0.2,3.4,0,0.00,,,0.00,WUHU216HW,2013-08-14 14:08:00,
2013-08-14 10:13:00,68.9,0.0,29.69,SW,225,1.6,3.4,0,0.00,,,0.00,WUHU216HW,2013-08-14 14:13:00,
2013-08-14 10:18:00,69.3,0.0,29.69,NE,45,1.1,3.4,0,0.00,,,0.00,WUHU216HW,2013-08-14 14:18:00,
2013-08-14 10:23:00,69.3,0.0,29.69,SW,225,0.7,3.4,0,0.00,,,0.00,WUHU216HW,2013-08-14 14:23:00,
2013-08-14 10:28:00,69.3,0.0,29.69,SSW,203,0.9,3.4,0,0.00,,,0.00,WUHU216HW,2013-08-14 14:28:00,
2013-08-14 10:33:00,69.8,0.0,29.69,WSW,248,5.4,5.4,0,0.00,,,0.00,WUHU216HW,2013-08-14 14:33:00,
2013-08-14 10:38:00,69.8,0.0,29.70,SSW,203,1.8,5.4,0,0.00,,,0.00,WUHU216HW,2013-08-14 14:38:00,
2013-08-14 10:43:00,70.4,0.0,29.70,SSW,203,2.2,3.4,0,0.00,,,0.00,WUHU216HW,2013-08-14 14:43:00,
2013-08-14 10:48:00,70.7,0.0,29.70,WSW,248,1.1,3.4,0,0.00,,,0.00,WUHU216HW,2013-08-14 14:48:00,
2013-08-14 10:53:00,70.7,0.0,29.70,WSW,248,2.5,2.5,0,0.00,,,0.00,WUHU216HW,2013-08-14 14:53:00,
2013-08-14 10:58:00,70.9,0.0,29.70,WSW,248,0.9,3.4,0,0.00,,,0.00,WUHU216HW,2013-08-14 14:58:00,
2013-08-14 11:03:00,71.3,0.0,29.70,SW,225,0.9,4.0,0,0.00,,,0.00,WUHU216HW,2013-08-14 15:03:00,
2013-08-14 11:08:00,71.6,0.0,29.70,South,180,2.2,4.0,0,0.00,,,0.00,WUHU216HW,2013-08-14 15:08:00,
2013-08-14 11:13:00,72.2,0.0,29.70,NE,45,1.8,2.7,0,0.00,,,0.00,WUHU216HW,2013-08-14 15:13:00,
2013-08-14 11:18:00,71.6,0.0,29.70,West,270,3.1,3.1,0,0.00,,,0.00,WUHU216HW,2013-08-14 15:18:00,
2013-08-14 11:23:00,71.8,0.0,29.70,SW,225,3.1,4.5,0,0.00,,,0.00,WUHU216HW,2013-08-14 15:23:00,
2013-08-14 11:28:00,72.5,0.0,29.70,West,270,2.2,4.5,0,0.00,,,0.00,WUHU216HW,2013-08-14 15:28:00,
2013-08-14 11:33:00,72.2,0.0,29.70,South,180,1.8,3.1,0,0.00,,,0.00,WUHU216HW,2013-08-14 15:33:00,
2013-08-14 11:38:00,72.0,0.0,29.70,NW,315,0.4,3.1,0,0.00,,,0.00,WUHU216HW,2013-08-14 15:38:00,
2013-08-14 11:43:00,72.2,0.0,29.69,NNW,338,1.1,2.9,0,0.00,,,0.00,WUHU216HW,2013-08-14 15:43:00,
2013-08-14 11:48:00,71.8,0.0,29.70,WSW,248,0.4,2.5,0,0.00,,,0.00,WUHU216HW,2013-08-14 15:48:00,
2013-08-14 11:54:00,72.2,0.0,29.70,WSW,248,0.4,4.0,0,0.00,,,0.00,WUHU216HW,2013-08-14 15:54:00,
2013-08-14 11:59:00,72.7,0.0,29.70,WNW,293,1.3,4.0,0,0.00,,,0.00,WUHU216HW,2013-08-14 15:59:00,
2013-08-14 12:04:00,73.1,0.0,29.70,NE,45,3.4,3.4,0,0.00,,,0.00,WUHU216HW,2013-08-14 16:04:00,
2013-08-14 12:09:00,72.9,0.0,29.70,NNW,338,2.7,3.4,0,0.00,,,0.00,WUHU216HW,2013-08-14 16:09:00,
2013-08-14 12:14:00,72.9,0.0,29.70,SSW,203,2.0,2.7,0,0.00,,,0.00,WUHU216HW,2013-08-14 16:14:00,
2013-08-14 12:19:00,73.4,0.0,29.70,SSE,158,2.0,2.5,0,0.00,,,0.00,WUHU216HW,2013-08-14 16:19:00,
2013-08-14 12:24:00,73.4,0.0,29.71,SW,225,1.1,3.4,0,0.00,,,0.00,WUHU216HW,2013-08-14 16:24:00,
2013-08-14 12:29:00,72.5,0.0,29.71,NNE,23,1.8,3.4,0,0.00,,,0.00,WUHU216HW,2013-08-14 16:29:00,
2013-08-14 12:34:00,72.2,0.0,29.70,NW,315,0.4,5.6,0,0.00,,,0.00,WUHU216HW,2013-08-14 16:34:00,
2013-08-14 12:39:00,72.4,0.0,29.71,SE,135,1.3,5.6,0,0.00,,,0.00,WUHU216HW,2013-08-14 16:39:00,
2013-08-14 12:44:00,72.7,0.0,29.71,West,270,1.1,2.9,0,0.00,,,0.00,WUHU216HW,2013-08-14 16:44:00,
2013-08-14 12:49:00,73.1,0.0,29.70,ENE,68,1.3,5.8,0,0.00,,,0.00,WUHU216HW,2013-08-14 16:49:00,
2013-08-14 12:54:00,73.8,0.0,29.71,North,0,4.9,5.8,0,0.00,,,0.00,WUHU216HW,2013-08-14 16:54:00,
2013-08-14 12:59:00,73.6,0.0,29.71,SW,225,1.8,4.9,0,0.00,,,0.00,WUHU216HW,2013-08-14 16:59:00,
2013-08-14 13:04:00,73.8,0.0,29.71,NNE,23,1.3,5.4,0,0.00,,,0.00,WUHU216HW,2013-08-14 17:04:00,
2013-08-14 13:09:00,73.4,0.0,29.71,NW,315,1.1,5.4,0,0.00,,,0.00,WUHU216HW,2013-08-14 17:09:00,
2013-08-14 13:14:00,73.4,0.0,29.71,SSW,203,2.0,2.7,0,0.00,,,0.00,WUHU216HW,2013-08-14 17:14:00,
2013-08-14 13:19:00,73.6,0.0,29.71,West,270,0.9,4.7,0,0.00,,,0.00,WUHU216HW,2013-08-14 17:19:00,
2013-08-14 13:24:00,73.8,0.0,29.71,ENE,68,1.1,4.7,0,0.00,,,0.00,WUHU216HW,2013-08-14 17:24:00,
2013-08-14 13:29:00,74.2,0.0,29.71,SSE,158,1.3,3.6,0,0.00,,,0.00,WUHU216HW,2013-08-14 17:29:00,
2013-08-14 13:34:00,74.7,0.0,29.71,ENE,68,1.3,3.4,0,0.00,,,0.00,WUHU216HW,2013-08-14 17:34:00,
2013-08-14 13:39:00,74.5,0.0,29.71,ENE,68,2.2,3.4,0,0.00,,,0.00,WUHU216HW,2013-08-14 17:39:00,
2013-08-14 13:44:00,75.8,0.0,29.71,SSW,203,4.3,4.5,0,0.00,,,0.00,WUHU216HW,2013-08-14 17:44:00,
2013-08-14 13:49:00,74.9,0.0,29.71,East,90,1.3,4.5,0,0.00,,,0.00,WUHU216HW,2013-08-14 17:49:00,
2013-08-14 13:54:00,74.9,0.0,29.71,WSW,248,2.2,4.0,0,0.00,,,0.00,WUHU216HW,2013-08-14 17:54:00,
2013-08-14 13:59:00,74.7,0.0,29.71,SW,225,1.6,3.4,0,0.00,,,0.00,WUHU216HW,2013-08-14 17:59:00,
2013-08-14 14:05:00,74.9,0.0,29.71,NE,45,4.0,4.0,0,0.00,,,0.00,WUHU216HW,2013-08-14 18:05:00,
2013-08-14 14:10:00,74.2,0.0,29.71,NW,315,3.4,4.0,0,0.00,,,0.00,WUHU216HW,2013-08-14 18:10:00,
2013-08-14 14:15:00,73.6,0.0,29.71,WSW,248,1.1,4.0,0,0.00,,,0.00,WUHU216HW,2013-08-14 18:15:00,
2013-08-14 14:20:00,73.8,0.0,29.71,SE,135,0.4,2.7,0,0.00,,,0.00,WUHU216HW,2013-08-14 18:20:00,
2013-08-14 14:26:00,73.4,0.0,29.72,SW,225,1.1,3.6,0,0.00,,,0.00,WUHU216HW,2013-08-14 18:26:00,
2013-08-14 14:31:00,73.4,0.0,29.72,NE,45,1.8,3.6,0,0.00,,,0.00,WUHU216HW,2013-08-14 18:31:00,
2013-08-14 14:36:00,73.4,0.0,29.72,East,90,2.0,3.4,0,0.00,,,0.00,WUHU216HW,2013-08-14 18:36:00,
2013-08-14 14:41:00,72.7,0.0,29.71,SW,225,1.1,3.4,0,0.00,,,0.00,WUHU216HW,2013-08-14 18:41:00,
2013-08-14 14:46:00,72.9,0.0,29.71,NNW,338,0.4,2.9,0,0.00,,,0.00,WUHU216HW,2013-08-14 18:46:00,
2013-08-14 14:52:00,73.8,0.0,29.71,ESE,113,1.3,2.5,0,0.00,,,0.00,WUHU216HW,2013-08-14 18:52:00,
2013-08-14 14:57:00,74.3,0.0,29.71,South,180,1.6,3.4,0,0.00,,,0.00,WUHU216HW,2013-08-14 18:57:00,
2013-08-14 15:03:00,74.9,0.0,29.71,West,270,1.8,4.0,0,0.00,,,0.00,WUHU216HW,2013-08-14 19:03:00,
2013-08-14 15:08:00,74.7,0.0,29.70,West,270,2.7,5.4,0,0.00,,,0.00,WUHU216HW,2013-08-14 19:08:00,
2013-08-14 15:13:00,74.3,0.0,29.71,West,270,0.9,5.4,0,0.00,,,0.00,WUHU216HW,2013-08-14 19:13:00,
2013-08-14 15:18:00,74.5,0.0,29.70,SSE,158,2.2,2.5,0,0.00,,,0.00,WUHU216HW,2013-08-14 19:18:00,
2013-08-14 15:23:00,74.2,0.0,29.70,North,0,1.1,2.7,0,0.00,,,0.00,WUHU216HW,2013-08-14 19:23:00,
2013-08-14 15:28:00,74.2,0.0,29.71,NW,315,1.8,2.7,0,0.00,,,0.00,WUHU216HW,2013-08-14 19:28:00,
2013-08-14 15:33:00,73.4,0.0,29.70,NE,45,1.3,1.8,0,0.00,,,0.00,WUHU216HW,2013-08-14 19:33:00,
2013-08-14 15:38:00,73.3,0.0,29.70,NNE,23,3.4,6.3,0,0.00,,,0.00,WUHU216HW,2013-08-14 19:38:00,
2013-08-14 15:43:00,72.5,0.0,29.71,East,90,1.6,6.3,0,0.00,,,0.00,WUHU216HW,2013-08-14 19:43:00,
2013-08-14 15:48:00,72.2,0.0,29.70,SSW,203,1.3,4.0,0,0.00,,,0.00,WUHU216HW,2013-08-14 19:48:00,
2013-08-14 15:53:00,72.0,0.0,29.71,SE,135,0.9,3.4,0,0.00,,,0.00,WUHU216HW,2013-08-14 19:53:00,
2013-08-14 15:58:00,72.0,0.0,29.71,NNW,338,1.3,3.4,0,0.00,,,0.00,WUHU216HW,2013-08-14 19:58:00,
2013-08-14 16:03:00,71.6,0.0,29.71,ESE,113,0.7,2.9,0,0.00,,,0.00,WUHU216HW,2013-08-14 20:03:00,
2013-08-14 16:08:00,71.5,0.0,29.71,WSW,248,1.8,6.3,0,0.00,,,0.00,WUHU216HW,2013-08-14 20:08:00,
2013-08-14 16:13:00,71.3,0.0,29.70,North,0,1.1,6.3,0,0.00,,,0.00,WUHU216HW,2013-08-14 20:13:00,
2013-08-14 16:18:00,70.9,0.0,29.71,SE,135,1.8,5.6,0,0.00,,,0.00,WUHU216HW,2013-08-14 20:18:00,
2013-08-14 16:23:00,71.1,0.0,29.71,NW,315,1.8,5.6,0,0.00,,,0.00,WUHU216HW,2013-08-14 20:23:00,
2013-08-14 16:29:00,70.7,0.0,29.72,SSE,158,1.8,3.8,0,0.00,,,0.00,WUHU216HW,2013-08-14 20:29:00,
2013-08-14 16:34:00,70.6,0.0,29.71,NW,315,0.4,3.8,0,0.00,,,0.00,WUHU216HW,2013-08-14 20:34:00,
2013-08-14 16:39:00,70.6,0.0,29.72,NW,315,3.1,3.1,0,0.00,,,0.00,WUHU216HW,2013-08-14 20:39:00,
2013-08-14 16:44:00,70.4,0.0,29.72,SSW,203,0.9,3.1,0,0.00,,,0.00,WUHU216HW,2013-08-14 20:44:00,
2013-08-14 16:49:00,70.6,0.0,29.72,West,270,1.8,2.0,0,0.00,,,0.00,WUHU216HW,2013-08-14 20:49:00,
2013-08-14 16:54:00,71.3,0.0,29.72,North,0,1.8,4.0,0,0.00,,,0.00,WUHU216HW,2013-08-14 20:54:00,
2013-08-14 16:59:00,71.3,0.0,29.72,NW,315,0.0,4.0,0,0.00,,,0.00,WUHU216HW,2013-08-14 20:59:00,
2013-08-14 17:04:00,71.3,0.0,29.72,NNW,338,3.4,3.4,0,0.00,,,0.00,WUHU216HW,2013-08-14 21:04:00,
2013-08-14 17:09:00,70.2,0.0,29.72,NNW,338,1.1,3.6,0,0.00,,,0.00,WUHU216HW,2013-08-14 21:09:00,
2013-08-14 17:14:00,70.0,0.0,29.72,NNW,338,1.1,3.6,0,0.00,,,0.00,WUHU216HW,2013-08-14 21:14:00,
2013-08-14 17:19:00,69.5,0.0,29.72,NE,45,3.4,3.4,0,0.00,,,0.00,WUHU216HW,2013-08-14 21:19:00,
2013-08-14 17:24:00,68.9,0.0,29.73,NE,45,1.1,3.4,0,0.00,,,0.00,WUHU216HW,2013-08-14 21:24:00,
2013-08-14 17:29:00,68.6,0.0,29.73,NW,315,6.3,6.3,0,0.00,,,0.00,WUHU216HW,2013-08-14 21:29:00,
2013-08-14 17:34:00,68.2,0.0,29.73,SE,135,1.1,6.3,0,0.00,,,0.00,WUHU216HW,2013-08-14 21:34:00,
2013-08-14 17:39:00,68.4,0.0,29.73,NNE,23,0.9,2.9,0,0.00,,,0.00,WUHU216HW,2013-08-14 21:39:00,
2013-08-14 17:44:00,68.6,0.0,29.74,SE,135,1.1,2.5,0,0.00,,,0.00,WUHU216HW,2013-08-14 21:44:00,
2013-08-14 17:49:00,68.6,0.0,29.74,NNE,23,2.0,2.9,0,0.00,,,0.00,WUHU216HW,2013-08-14 21:49:00,
2013-08-14 17:54:00,68.6,0.0,29.74,NNE,23,1.6,2.9,0,0.00,,,0.00,WUHU216HW,2013-08-14 21:54:00,
2013-08-14 17:59:00,68.4,0.0,29.74,SW,225,1.3,2.0,0,0.00,,,0.00,WUHU216HW,2013-08-14 21:59:00,
2013-08-14 18:04:00,68.2,0.0,29.74,NW,315,3.4,3.4,0,0.00,,,0.00,WUHU216HW,2013-08-14 22:04:00,
2013-08-14 18:09:00,68.2,0.0,29.74,WNW,293,1.1,3.4,0,0.00,,,0.00,WUHU216HW,2013-08-14 22:09:00,
2013-08-14 18:14:00,68.0,0.0,29.74,WSW,248,0.9,3.6,0,0.00,,,0.00,WUHU216HW,2013-08-14 22:14:00,
2013-08-14 18:19:00,67.5,0.0,29.74,NNE,23,1.3,4.5,0,0.00,,,0.00,WUHU216HW,2013-08-14 22:19:00,
2013-08-14 18:24:00,67.0,0.0,29.74,East,90,1.1,4.5,0,0.00,,,0.00,WUHU216HW,2013-08-14 22:24:00,
2013-08-14 18:29:00,66.6,0.0,29.74,NE,45,1.1,2.5,0,0.00,,,0.00,WUHU216HW,2013-08-14 22:29:00,
2013-08-14 18:35:00,66.2,0.0,29.74,ENE,68,0.2,1.8,0,0.00,,,0.00,WUHU216HW,2013-08-14 22:35:00,
2013-08-14 18:40:00,66.1,0.0,29.75,WSW,248,1.1,1.1,0,0.00,,,0.00,WUHU216HW,2013-08-14 22:40:00,
2013-08-14 18:45:00,65.9,0.0,29.75,NNE,23,0.4,1.3,0,0.00,,,0.00,WUHU216HW,2013-08-14 22:45:00,
2013-08-14 18:50:00,65.7,0.0,29.76,NNE,23,1.6,1.6,0,0.00,,,0.00,WUHU216HW,2013-08-14 22:50:00,
2013-08-14 18:55:00,65.5,0.0,29.76,NE,45,1.3,1.8,0,0.00,,,0.00,WUHU216HW,2013-08-14 22:55:00,
2013-08-14 19:00:00,65.2,0.0,29.77,West,270,0.9,1.8,0,0.00,,,0.00,WUHU216HW,2013-08-14 23:00:00,
2013-08-14 19:06:00,65.2,0.0,29.77,North,0,0.0,1.6,0,0.00,,,0.00,WUHU216HW,2013-08-14 23:06:00,
2013-08-14 19:11:00,64.8,0.0,29.77,South,180,0.4,0.9,0,0.00,,,0.00,WUHU216HW,2013-08-14 23:11:00,
2013-08-14 19:16:00,64.6,0.0,29.77,ESE,113,1.8,1.8,0,0.00,,,0.00,WUHU216HW,2013-08-14 23:16:00,
2013-08-14 19:21:00,64.1,0.0,29.77,ESE,113,0.2,1.8,0,0.00,,,0.00,WUHU216HW,2013-08-14 23:21:00,
2013-08-14 19:26:00,63.7,0.0,29.77,East,90,0.7,1.3,0,0.00,,,0.00,WUHU216HW,2013-08-14 23:26:00,
2013-08-14 19:31:00,63.5,0.0,29.77,NW,315,2.5,3.4,0,0.00,,,0.00,WUHU216HW,2013-08-14 23:31:00,
2013-08-14 19:36:00,63.5,0.0,29.78,SSW,203,1.6,3.4,0,0.00,,,0.00,WUHU216HW,2013-08-14 23:36:00,
2013-08-14 19:41:00,63.2,0.0,29.78,NNW,338,1.8,2.5,0,0.00,,,0.00,WUHU216HW,2013-08-14 23:41:00,
2013-08-14 19:46:00,63.0,0.0,29.78,North,0,0.0,1.8,0,0.00,,,0.00,WUHU216HW,2013-08-14 23:46:00,
2013-08-14 19:51:00,62.6,0.0,29.79,North,0,0.0,1.8,0,0.00,,,0.00,WUHU216HW,2013-08-14 23:51:00,
2013-08-14 19:56:00,62.3,0.0,29.79,North,0,0.2,0.4,0,0.00,,,0.00,WUHU216HW,2013-08-14 23:56:00,
2013-08-14 20:01:00,62.1,0.0,29.79,North,0,0.0,0.7,0,0.00,,,0.00,WUHU216HW,2013-08-15 00:01:00,
2013-08-14 20:06:00,61.7,0.0,29.79,NNE,23,0.4,0.7,0,0.00,,,0.00,WUHU216HW,2013-08-15 00:06:00,
2013-08-14 20:11:00,61.2,0.0,29.80,NNE,23,0.0,0.4,0,0.00,,,0.00,WUHU216HW,2013-08-15 00:11:00,
2013-08-14 20:16:00,60.8,0.0,29.80,NNE,23,0.0,0.2,0,0.00,,,0.00,WUHU216HW,2013-08-15 00:16:00,
2013-08-14 20:21:00,60.5,0.0,29.81,NNE,23,0.0,0.0,0,0.00,,,0.00,WUHU216HW,2013-08-15 00:21:00,
2013-08-14 20:26:00,60.3,0.0,29.81,NNE,23,0.0,0.0,0,0.00,,,0.00,WUHU216HW,2013-08-15 00:26:00,
2013-08-14 20:31:00,59.9,0.0,29.81,NNE,23,0.0,0.0,0,0.00,,,0.00,WUHU216HW,2013-08-15 00:31:00,
2013-08-14 20:36:00,59.6,0.0,29.82,NNE,23,0.0,0.0,0,0.00,,,0.00,WUHU216HW,2013-08-15 00:36:00,
2013-08-14 20:41:00,59.0,0.0,29.82,NNE,23,0.0,0.0,0,0.00,,,0.00,WUHU216HW,2013-08-15 00:41:00,
2013-08-14 20:46:00,58.9,0.0,29.82,NNE,23,0.0,0.0,0,0.00,,,0.00,WUHU216HW,2013-08-15 00:46:00,
2013-08-14 20:51:00,58.3,0.0,29.82,NNE,23,0.0,0.0,0,0.00,,,0.00,WUHU216HW,2013-08-15 00:51:00,
2013-08-14 20:56:00,58.0,0.0,29.83,NNE,23,0.0,0.0,0,0.00,,,0.00,WUHU216HW,2013-08-15 00:56:00,
2013-08-14 21:01:00,57.6,0.0,29.83,East,90,0.0,2.2,0,0.00,,,0.00,WUHU216HW,2013-08-15 01:01:00,
2013-08-14 21:06:00,57.4,0.0,29.83,East,90,0.2,2.2,0,0.00,,,0.00,WUHU216HW,2013-08-15 01:06:00,
2013-08-14 21:12:00,57.4,0.0,29.84,East,90,0.0,0.2,0,0.00,,,0.00,WUHU216HW,2013-08-15 01:12:00,
2013-08-14 21:17:00,57.2,0.0,29.84,East,90,0.0,0.0,0,0.00,,,0.00,WUHU216HW,2013-08-15 01:17:00,
2013-08-14 21:22:00,57.2,0.0,29.85,East,90,0.0,0.0,0,0.00,,,0.00,WUHU216HW,2013-08-15 01:22:00,
2013-08-14 21:27:00,57.2,0.0,29.85,East,90,0.0,0.0,0,0.00,,,0.00,WUHU216HW,2013-08-15 01:27:00,
2013-08-14 21:32:00,57.2,0.0,29.85,East,90,0.0,0.9,0,0.00,,,0.00,WUHU216HW,2013-08-15 01:32:00,
2013-08-14 21:37:00,57.1,0.0,29.85,East,90,0.0,0.9,0,0.00,,,0.00,WUHU216HW,2013-08-15 01:37:00,
2013-08-14 21:42:00,57.1,0.0,29.85,East,90,0.0,0.0,0,0.00,,,0.00,WUHU216HW,2013-08-15 01:42:00,
2013-08-14 21:47:00,56.7,0.0,29.85,East,90,0.0,0.0,0,0.00,,,0.00,WUHU216HW,2013-08-15 01:47:00,
2013-08-14 21:52:00,56.7,0.0,29.85,East,90,0.0,0.0,0,0.00,,,0.00,WUHU216HW,2013-08-15 01:52:00,
2013-08-14 21:57:00,56.7,0.0,29.85,East,90,0.0,0.0,0,0.00,,,0.00,WUHU216HW,2013-08-15 01:57:00,
2013-08-14 22:03:00,56.2,0.0,29.86,East,90,0.0,0.0,0,0.00,,,0.00,WUHU216HW,2013-08-15 02:03:00,
2013-08-14 22:08:00,55.8,0.0,29.86,East,90,0.0,0.0,0,0.00,,,0.00,WUHU216HW,2013-08-15 02:08:00,
2013-08-14 22:13:00,55.8,0.0,29.86,East,90,0.0,0.0,0,0.00,,,0.00,WUHU216HW,2013-08-15 02:13:00,
2013-08-14 22:18:00,55.6,0.0,29.86,East,90,0.0,0.0,0,0.00,,,0.00,WUHU216HW,2013-08-15 02:18:00,
2013-08-14 22:23:00,55.1,0.0,29.86,East,90,0.0,0.0,0,0.00,,,0.00,WUHU216HW,2013-08-15 02:23:00,
2013-08-14 22:28:00,54.7,0.0,29.87,East,90,0.0,0.0,0,0.00,,,0.00,WUHU216HW,2013-08-15 02:28:00,
2013-08-14 22:33:00,54.5,0.0,29.87,East,90,0.0,0.0,0,0.00,,,0.00,WUHU216HW,2013-08-15 02:33:00,
2013-08-14 22:38:00,54.5,0.0,29.87,East,90,0.0,0.0,0,0.00,,,0.00,WUHU216HW,2013-08-15 02:38:00,
2013-08-14 22:43:00,53.8,0.0,29.87,East,90,0.0,0.0,0,0.00,,,0.00,WUHU216HW,2013-08-15 02:43:00,
2013-08-14 22:48:00,53.5,0.0,29.87,East,90,0.0,0.2,0,0.00,,,0.00,WUHU216HW,2013-08-15 02:48:00,
2013-08-14 22:53:00,53.3,0.0,29.87,East,90,0.0,0.2,0,0.00,,,0.00,WUHU216HW,2013-08-15 02:53:00,
2013-08-14 22:58:00,53.1,0.0,29.87,East,90,0.0,0.0,0,0.00,,,0.00,WUHU216HW,2013-08-15 02:58:00,
2013-08-14 23:03:00,52.9,0.0,29.87,East,90,0.0,0.0,0,0.00,,,0.00,WUHU216HW,2013-08-15 03:03:00,
2013-08-14 23:08:00,52.6,0.0,29.88,East,90,0.4,0.4,0,0.00,,,0.00,WUHU216HW,2013-08-15 03:08:00,
2013-08-14 23:13:00,52.2,0.0,29.88,East,90,0.0,0.4,0,0.00,,,0.00,WUHU216HW,2013-08-15 03:13:00,
2013-08-14 23:18:00,52.2,0.0,29.88,East,90,0.0,0.0,0,0.00,,,0.00,WUHU216HW,2013-08-15 03:18:00,
2013-08-14 23:23:00,52.0,0.0,29.88,East,90,0.0,0.0,0,0.00,,,0.00,WUHU216HW,2013-08-15 03:23:00,
2013-08-14 23:28:00,51.8,0.0,29.89,East,90,0.0,0.0,0,0.00,,,0.00,WUHU216HW,2013-08-15 03:28:00,
2013-08-14 23:33:00,51.5,0.0,29.89,East,90,0.0,0.0,0,0.00,,,0.00,WUHU216HW,2013-08-15 03:33:00,
2013-08-14 23:38:00,51.3,0.0,29.89,East,90,0.0,0.0,0,0.00,,,0.00,WUHU216HW,2013-08-15 03:38:00,
2013-08-14 23:43:00,51.1,0.0,29.88,East,90,0.0,0.0,0,0.00,,,0.00,WUHU216HW,2013-08-15 03:43:00,
2013-08-14 23:48:00,50.8,0.0,29.88,East,90,0.0,0.0,0,0.00,,,0.00,WUHU216HW,2013-08-15 03:48:00,
2013-08-14 23:53:00,50.6,0.0,29.89,East,90,0.0,0.0,0,0.00,,,0.00,WUHU216HW,2013-08-15 03:53:00,
2013-08-14 23:58:00,50.6,0.0,29.89,East,90,0.0,0.0,0,0.00,,,0.00,WUHU216HW,2013-08-15 03:58:00,